OPS 4682 DEB, 19576

Orbit data source: Space-Track

OPS 4682 DEB, 19576 is space debris in LEO originally from a launch on Sat, 03 Apr 1965 UTC launched from the Air Force Western Test Range (AFWTR). Debris objects in space refer to the collection of defunct objects orbiting the Earth. Examples of debris include non-operational satellites, rocket bodies, and fragments generated from explosions, collisions, or faulty payload assembly.

Loading next visibility...
Identifier
19576, 1965-027AV
Orbit
LEO
Country
Flag of USUS
Related business
Manufacturer
Unknown
Mission
Spacecraft
Bus & Motor
Unknown
Mass
Unknown
Launch date (UTC)
1965-04-03 (61 years ago)
Launch vehicle
Unknown
Launch site
Air Force Western Test Range (AFWTR)
Object type
Payload
Rocket body
Debris
Shape & HBR
Unknown shape, 0.1 m
Radar Cross Section
Small (<0.1 m²)

Expand to show TLE details & history
Last TLE update: 2 days ago

TLE from 2 days ago
0 OPS 4682 DEB
1 19576U 65027AV  26103.21624321  .00000987  00000-0  32170-2 0  9990
2 19576  90.2433   7.6489 0027873  28.5321 125.9639 13.00740755789903
Epoch: 2026-04-13T05:11Z
TLE epoch observation values (Epoch: 2026-04-13T05:11:23.413Z)
Latitude
25.272°
Longitude
-91.4944°
Altitude
1,274.789 km
Speed
7.215 km/s
True Right ascension
12h 31m 03s
True Declination
25° 08' 54"
Sunlit
Object was in full shadow at epoch
Visualization orbit readout
Latitude
Unknown
Longitude
Unknown
Altitude
Unknown
Speed
Unknown
Apparent Right ascension
Unknown
Apparent Declination
Unknown
Sunlit
N/A
Visualization observer readout
Local Sidereal Time
04:22:26
Azimuth
Unknown
Elevation
Unknown
Doppler factor
Unknown
Orbital elements
Apogee altitude
1,277.591 km
Perigee altitude
1,235.032 km
Semi-major axis
7,634.449 km
Eccentricity
0.00279
Inclination
90.2433°
RAAN
7.6489°
Arg. of periapsis
28.5321°
True anomaly
126.22189°
Mean anomaly
125.9639°
Eccentric anomaly
126.09295°
Mean motion
3.25369 °/min
Orbital period
110.64 mins
BSTAR
0.003217
Loading maneuver chart data...
Computing Atmospheric mass density...
Loading historical data...
Loading historical data...
Loading historical data...
Loading historical data...
Loading historical data...
Loading historical data...
Loading historical data...

Documentation

Showing up to 5 results
|